CAPE
62 53 40 41 37 15 0 0 0 0 0 0 0 0 0 0 0 0 0 0 0 0 0 0 0 0 0 0 0 0 0 0 0 0 0 0 0 0
93 90 97 78 70 39 21 25 21 11 0 0 2 9 29 37 9 0 0 0 0 0 0 0 0 0 0 0 0 0 0 0 0 0 0 0 0 0
75 68 48 46 62 88 74 51 18 24 14 1 0 0 7 23 35 74 67 28 0 0 0 0 0 0 0 0 0 0 0 0 0 0 0 0 0 0
7 4 6 53 36 64 82 86 64 44 45 11 6 3 2 42 83 70 45 59 61 56 5 0 0 0 0 0 0 0 0 0 0 0 0 0 0 0
2 5 12 19 22 36 60 65 70 56 51 34 19 75 26 15 9 8 13 9 13 22 25 7 0 0 0 0 0 0 0 0 0 0 0 0 0 0
5 4 0 5 9 22 34 46 51 74 82 82 17 16 9 6 16 20 1 1 4 7 16 1 0 0 0 0 0 0 0 0 0 0 0 0 0 0
16 26 9 5 2 2 14 54 93 57 64 54 49 44 42 46 23 20 26 22 19 36 19 20 10 10 0 14 0 0 0 0 0 0 0 0 0 0
3 19 59 34 1 1 0 0 0 0 7 27 3 13 3 2 1 3 0 1 2 10 0 0 10 4 24 44 42 26 0 0 0 0 0 0 0 0
0 0 1 0 0 0 0 0 0 0 0 0 1 3 3 0 1 1 1 2 2 1 7 0 3 1 8 19 24 14 4 0 0 0 0 0 0 0
0 0 0 0 0 0 0 0 0 0 0 0 0 0 0 0 0 1 3 4 2 3 9 0 1 9 0 0 0 0 6 1 0 0 0 0 0 0
0 0 0 0 0 0 0 0 0 0 0 0 0 0 0 0 0 0 0 0 0 0 0 3 0 0 0 0 0 0 2 0 0 0 0 0 0 0
0 0 0 0 0 0 0 0 0 0 0 0 0 0 0 0 0 0 0 2 1 1 0 2 5 9 2 0 2 1 8 5 0 1 0 0 0 0
0 0 0 0 0 0 0 0 0 0 0 0 0 0 0 0 0 0 1 0 2 3 4 6 2 6 7 4 1 3 8 6 11 12 7 0 0 0
0 0 0 0 0 0 0 0 0 0 0 0 0 0 0 0 0 0 1 1 2 0 0 2 2 4 4 3 3 2 4 10 3 5 4 2 1 0
0 0 0 0 0 0 0 0 0 0 0 0 0 0 0 0 0 0 0 0 0 1 2 4 1 1 1 1 2 0 1 0 1 2 2 2 2 1
0 0 0 0 0 0 0 0 0 1 0 0 0 0 0 0 0 0 1 1 0 0 2 6 0 0 0 0 0 0 1 3 1 1 1 0 0 1
0 0 0 0 0 0 0 0 0 2 0 0 0 0 0 1 0 0 1 0 0 0 0 0 0 0 0 0 0 0 0 2 1 1 0 0 0 0
0 0 0 0 0 0 0 0 0 0 0 0 0 1 0 0 0 0 0 0 0 0 0 0 0 1 0 0 0 1 0 0 0 0 0 0 0 0
0 0 0 0 0 0 0 0 0 0 1 1 0 0 0 0 0 0 0 0 0 0 0 0 0 1 2 0 0 0 3 2 0 0 0 0 0 0
0 0 0 0 0 0 0 0 0 0 0 0 0 0 2 0 0 0 1 1 0 0 0 0 1 0 0 1 0 0 2 1 1 0 0 0 0 0
0 0 0 0 0 0 0 0 0 0 0 0 0 0 0 0 0 0 0 0 3 2 1 0 0 1 0 0 0 0 0 0 0 0 0 0 0 0
0 0 0 0 0 0 0 0 0 0 0 0 0 0 0 0 2 1 1 0 0 0 0 1 3 1 0 0 1 0 0 0 0 0 0 0 0 0
0 0 0 0 0 0 0 0 0 0 0 0 0 0 0 0 0 0 0 0 0 0 0 0 0 0 0 0 0 0 0 0 0 0 0 0 0 0
CIN
-9 -17 -11 -11 -14 -5 -3 0 0 0 0 0 -1 -2 0 0 0 0 0 0 0 0 0 0 0 0 0 0 0 0 0 0 0 0 0 0 0 0
-5 -3 -5 -10 -16 -17 -21 -6 -3 -2 -0 0 -54 -36 -13 -13 -6 -6 0 0 0 0 0 0 0 0 0 0 0 0 0 0 0 0 0 0 0 0
-14 -3 -6 -7 -10 -3 -14 -15 -14 -8 -2 -119 0 0 -8 -9 -10 -9 -11 -13 0 0 0 0 0 0 0 0 0 0 0 0 0 0 0 0 0 0
-18 -45 -23 -0 -6 -3 -0 -5 -8 -8 -3 -17 -12 -14 -11 -14 -12 -9 -12 -12 -11 -14 -36 0 0 0 0 0 0 0 0 0 0 0 0 0 0 0
-38 -38 -35 -21 -3 -10 -5 -0 -1 -0 -10 -2 -1 -8 -10 -13 -23 -29 -27 -27 -19 -11 -8 -11 0 0 0 0 0 0 0 0 0 0 0 0 0 0
-13 -14 0 -22 -6 -2 -14 -1 -0 -1 -3 -0 -13 -22 -36 -45 -15 -21 -16 -11 -14 -6 -5 -3 -1 0 0 0 0 0 0 0 0 0 0 0 0 0
-11 -19 -26 -24 -14 -2 -14 -1 0 -0 -2 -6 -9 -1 -1 -1 -3 -8 -2 -3 -2 -2 -2 -4 -6 -25 0 -46 0 0 0 0 0 0 0 0 0 0
-38 -4 -11 -7 -23 -45 0 0 0 0 -19 -5 -2 -3 0 -21 0 0 0 0 0 -1 0 0 -8 -7 -14 -11 -14 -22 -1 0 0 0 0 0 0 0
0 0 -14 0 0 0 0 0 0 0 0 0 0 0 0 0 0 0 0 0 0 0 -0 0 -0 -0 -52 -14 -6 -3 -1 0 0 0 0 0 0 0
0 0 0 0 0 0 0 0 0 0 0 0 0 0 0 0 0 0 0 0 0 -0 -1 0 -0 -0 0 0 0 0 -14 -12 0 0 0 0 0 0
0 0 0 0 0 0 0 0 0 0 0 0 0 0 0 0 0 0 0 0 0 0 0 0 -0 0 0 0 0 -0 -2 0 0 0 0 0 0 0
0 0 0 0 0 0 0 0 0 0 0 0 0 0 0 0 0 0 0 0 0 -0 -4 0 -1 -0 -0 -0 -2 -0 -0 -2 -0 -0 0 0 0 0
0 0 0 0 0 0 0 0 0 0 0 0 0 0 0 0 0 0 0 -0 0 0 -0 -0 -0 -0 -0 -0 -1 -0 -0 -1 -0 -0 -1 0 0 0
0 0 0 0 0 0 0 0 0 0 0 0 0 -0 -0 -0 -0 0 0 -0 -0 0 -0 -0 -0 -0 0 0 0 -0 0 -0 -0 -0 0 0 -0 -0
0 0 0 0 0 0 0 0 0 0 0 -0 0 0 0 0 0 0 0 0 -0 -0 0 -1 -1 -0 -1 0 0 0 0 -0 0 0 0 0 0 0
0 0 0 0 0 0 0 0 0 -0 -0 0 0 -0 0 -1 -0 0 -1 -1 -1 0 -0 -0 0 -0 -0 0 0 0 0 0 -0 0 0 -0 0 0
0 0 0 0 0 0 0 0 0 -0 -0 -1 0 0 -2 -1 -0 -1 -1 0 0 0 0 0 0 0 0 0 0 0 0 -0 -0 -0 -0 -0 -0 -0
0 0 0 0 0 0 0 0 0 -1 -1 0 -1 -1 -0 0 0 0 0 0 0 0 0 0 -0 -1 -0 0 0 0 0 0 0 -0 -0 0 0 0
0 0 0 0 0 0 0 0 0 0 -0 -0 -1 -1 -1 0 0 0 0 0 0 -3 0 0 0 0 0 0 0 0 0 0 0 -1 0 0 0 0
0 0 0 0 0 0 0 0 0 0 0 0 0 0 -0 -1 -1 -1 -1 -2 0 -1 -1 0 -0 0 0 0 0 -0 -0 0 0 0 0 0 0 0
0 0 0 0 0 0 0 0 0 0 0 0 0 0 -1 -2 -2 -1 -2 -2 -3 -2 -1 -1 -1 -2 0 0 0 0 0 0 0 0 0 0 0 0
0 0 0 0 0 0 0 0 0 0 0 0 0 0 -0 0 -3 -1 -2 0 0 -0 -0 -4 -1 -1 -1 0 0 0 0 0 0 0 0 0 0 0
0 0 0 0 0 0 0 0 0 0 0 0 0 0 0 0 0 0 0 0 0 0 0 0 0 0 0 0 0 0 0 0 0 0 0 0 0 0
Wind_Speed
18 19 19 21 21 21 19 21 24 29 29 25 27 19 14 13 13 12 13 13 13 16 15 17 19 20 21 22 23 23 24 24 24 24 24 24 23 23
22 23 23 24 21 21 23 22 23 26 31 27 30 29 27 25 20 18 17 19 19 21 22 25 23 22 22 24 24 24 25 25 25 26 26 26 26 26
32 33 29 32 30 28 20 20 22 25 28 38 30 28 29 31 30 30 30 30 29 26 25 26 26 26 25 25 24 24 24 24 26 26 26 27 28 29
21 29 34 29 31 32 29 25 26 28 28 37 40 34 34 31 35 38 39 36 35 34 35 35 34 31 31 29 28 28 28 28 27 28 28 27 27 28
15 23 32 33 34 28 32 37 33 33 38 35 38 29 36 35 39 38 38 40 40 40 39 39 39 39 37 36 34 32 32 31 31 31 30 30 30 30
12 13 21 24 20 28 35 35 35 36 37 40 40 36 36 34 34 38 41 38 41 40 39 41 41 42 43 41 37 35 35 35 34 35 35 33 32 31
14 18 17 20 21 28 33 36 36 36 30 30 33 34 36 40 38 40 41 44 44 41 47 43 46 44 43 43 43 41 39 38 38 37 38 39 39 37
19 21 18 19 21 23 26 24 26 30 32 30 33 38 40 41 40 44 48 51 55 40 49 55 49 52 50 50 51 48 48 46 45 42 44 44 43 41
20 22 20 22 24 25 27 29 30 30 29 33 36 38 41 41 43 45 47 50 52 51 52 60 51 56 53 54 55 56 56 55 52 52 53 49 47 46
18 19 20 24 27 29 30 30 31 31 32 33 34 36 36 37 39 41 44 47 50 49 47 59 55 56 57 58 59 61 59 60 60 58 56 56 55 54
17 19 21 23 26 28 27 29 30 30 32 32 31 31 33 35 37 39 43 47 52 51 44 47 52 62 60 62 55 59 59 61 60 61 60 58 56 53
16 19 22 21 25 28 28 30 31 32 33 31 30 31 33 35 37 38 40 45 47 47 42 54 54 54 60 57 57 61 58 62 65 61 63 63 60 58
17 20 22 23 26 27 28 28 29 29 29 30 31 32 33 34 35 36 37 38 40 40 44 48 49 51 50 60 61 58 59 59 58 59 56 58 58 54
20 21 22 23 23 25 26 27 27 26 27 28 29 31 32 33 34 34 35 35 35 37 40 43 44 48 52 58 60 60 59 57 57 57 55 54 53 52
17 18 19 21 19 19 22 24 25 25 25 26 28 29 30 32 32 33 34 35 36 36 39 41 44 46 45 47 51 56 58 53 46 55 52 49 48 48
14 13 15 14 18 20 22 23 24 24 25 26 26 28 30 31 34 35 37 38 40 41 40 40 43 45 45 45 47 49 48 46 50 48 42 40 39 37
13 19 19 20 20 21 21 22 23 24 25 25 27 29 30 33 36 36 37 37 40 43 44 45 45 43 38 44 50 47 45 43 44 42 36 36 34 33
19 19 19 19 20 20 21 21 23 23 24 26 27 30 32 34 35 35 36 39 41 43 44 45 47 45 40 35 44 47 42 41 39 40 36 33 32 31
19 18 18 19 19 19 20 21 22 23 24 26 28 30 31 33 34 36 37 38 40 40 41 42 44 45 45 46 35 43 44 40 39 36 35 33 30 32
18 18 18 18 18 19 19 20 21 22 24 25 27 28 30 31 33 35 37 37 38 38 38 41 42 42 41 41 37 34 40 40 37 35 33 31 30 28
16 16 16 16 17 17 18 19 20 21 23 25 24 26 28 31 31 33 34 36 36 36 37 38 37 34 35 32 34 35 33 36 36 35 33 28 28 26
14 14 14 15 16 17 18 19 20 21 22 24 25 26 26 28 29 31 31 32 34 34 33 32 31 31 32 34 34 31 29 31 32 33 33 31 29 27
12 13 13 14 14 15 16 18 19 20 21 22 23 25 27 28 28 29 30 30 30 30 31 31 28 27 26 26 26 27 26 24 27 29 30 29 28 27
Wind_Direction
274 279 282 287 290 295 294 296 299 302 304 309 308 312 308 309 303 300 299 289 270 258 271 270 275 278 274 277 275 272 268 266 262 263 268 267 265 267
277 281 283 287 286 288 290 294 295 298 301 305 303 308 312 317 316 309 303 302 300 301 302 306 301 292 287 287 280 276 273 268 266 265 268 265 265 261
283 283 286 287 287 288 288 290 293 295 298 295 302 307 310 311 313 314 315 314 312 308 304 304 302 300 296 293 287 283 285 274 269 269 272 269 265 259
291 288 288 293 290 283 288 290 293 296 300 296 295 300 306 312 312 311 312 313 312 310 309 308 306 303 301 296 291 288 287 284 282 280 279 277 272 265
295 294 292 289 291 280 290 282 295 300 298 297 301 317 309 312 309 310 311 311 312 311 309 309 308 308 306 303 298 294 294 290 290 285 285 283 279 275
321 320 311 309 309 283 284 292 297 304 302 298 306 314 313 313 312 312 311 312 312 314 312 312 309 308 307 305 301 298 296 293 294 292 290 289 286 280
315 312 325 321 319 281 286 295 300 302 315 315 314 317 316 315 313 313 311 312 313 314 311 311 311 311 309 308 306 304 300 298 294 292 292 293 292 290
319 324 325 328 328 325 319 321 319 318 316 317 316 314 315 317 315 314 311 310 309 318 314 308 311 306 306 304 305 304 302 299 296 292 294 292 290 289
317 316 321 324 323 322 321 320 320 322 321 318 315 316 315 316 316 314 313 311 309 313 314 306 312 306 308 306 305 303 301 299 296 294 292 290 290 288
323 324 322 320 321 321 320 320 321 321 321 321 321 320 321 321 322 320 317 315 314 316 319 308 313 309 310 307 308 306 304 303 300 297 295 291 288 286
331 331 328 326 326 326 325 324 324 324 325 326 327 329 331 332 332 329 326 323 318 320 325 322 318 314 313 309 310 309 308 304 301 300 298 295 293 291
329 333 333 330 329 328 326 325 324 325 327 330 333 335 336 334 336 335 333 328 327 325 332 326 324 325 316 315 313 311 309 305 302 302 297 295 292 290
327 327 327 328 329 331 332 331 330 331 333 335 334 336 337 339 341 342 343 342 338 337 336 335 332 330 326 320 318 317 314 311 308 305 304 301 296 294
325 326 328 330 332 335 337 337 339 341 341 343 344 345 346 348 348 350 351 351 350 346 346 345 339 337 333 327 323 323 321 316 312 307 305 302 301 297
353 352 347 346 353 353 353 352 353 354 358 1 357 357 357 357 359 358 358 357 357 356 354 351 347 343 341 339 335 334 328 324 322 316 311 307 304 304
69 82 55 64 39 26 20 15 11 11 10 7 6 5 3 4 2 2 1 360 359 358 360 359 355 351 350 351 349 345 342 335 329 325 320 321 319 318
139 63 47 39 35 28 24 20 17 16 13 11 8 6 5 2 1 2 2 3 2 0 360 0 1 0 3 359 357 358 353 350 346 342 338 334 333 336
66 49 44 38 32 28 24 21 17 15 12 9 6 4 1 1 0 1 2 2 2 2 3 2 1 3 6 9 12 7 2 2 1 359 356 356 350 348
45 41 36 31 28 26 23 17 14 12 10 8 5 3 2 1 0 360 359 0 2 5 6 6 5 6 4 4 13 14 3 4 7 17 7 7 5 8
43 41 37 32 27 23 19 16 14 12 8 6 4 3 2 1 0 360 359 360 1 4 6 8 8 9 9 7 11 18 10 8 12 13 22 18 18 11
35 32 29 26 22 17 14 11 8 6 4 2 4 2 1 359 359 359 360 360 1 3 4 5 8 14 15 19 19 22 24 18 19 16 11 25 7 358
33 30 26 22 16 14 10 6 3 1 0 360 359 358 358 358 357 357 358 359 1 2 3 4 8 12 14 16 18 25 31 28 27 25 22 23 24 8
28 23 17 14 11 8 5 2 359 357 357 356 356 355 354 353 354 356 356 357 358 359 1 1 5 10 11 12 15 21 28 35 29 25 28 29 27 27